Content
SEND FEEDBACK

Daily
Averages
Monthly
Summary
United States of America

AURORA, NEW YORK


Home > North America > United States > New York
Elevation: 871 feet     Latitude: 42 44N     Longitude: 076 39W

WEATHER
 
SELECT A DAY
Number of Records: 163,931;   Date Range: 1/1/95 - 12/25/14
 
SHARE

PRINT THIS DATA

[ ← Previous Day ]
WEATHER ALMANAC - JANUARY 19, 2013
[ Next Day → ]
[ °C ]   °F
Weather ElementAverageHighLow
Temperature38.8 °F47.8 °F (2:56 pm)27.1 °F (1:56 am)
Dewpoint17 °F24.1 °F (4:56 pm)10 °F (2:56 am)
Humidity41.6 %51 % (1:56 am)36 % (2:56 pm)
Barometer29.97 in30.14 in (1:56 am)29.72 in (11:56 pm)
Wind Speed11.9 mph18.4 mph (11:56 am)
Wind Gust21.9 mph (11:56 am)
Weather ElementAverage
Visibility10 mi
Wind DirectionSSW (186.3 °)

Weather ElementTotal
Precipitation---
Heating Degree Days27.6 (Base 65)
Averaged from 24 records on January 19, 2013
WEATHER CONDITIONS BREAKOUT
WIND DIRECTION BREAKOUT
WEATHER BY HOUR - JANUARY 19, 2013
[ °C ]   °F
Local TimeTemperatureDewpointHumidityBarometerVisibilityWind DirectionWind SpeedGust SpeedPrecipitationEventsConditions
1:56 AM27.1 °F11.1 °F51 %30.14 in10.0 miSSE (160°)11.5 mphOvercast
2:56 AM29.1 °F10.0 °F45 %30.14 in10.0 miSouth (170°)8.1 mphOvercast
3:56 AM32.0 °F10.0 °F40 %30.11 in10.0 miSSW (200°)13.8 mph20.7 mphOvercast
4:56 AM32.9 °F10.0 °F39 %30.09 in10.0 miSouth (190°)11.5 mphOvercast
5:56 AM32.9 °F10.0 °F39 %30.09 in10.0 miSouth (180°)12.7 mph20.7 mphClear
6:30 AM30.2 °F12.2 °F47 %30.04 in10.0 miSSE (160°)9.2 mphClear
6:56 AM30.0 °F12.0 °F47 %30.09 in10.0 miSSE (160°)9.2 mphClear
7:56 AM30.0 °F12.0 °F47 %30.08 in10.0 miSSE (150°)9.2 mphClear
8:56 AM32.0 °F13.1 °F46 %30.08 in10.0 miSSE (150°)9.2 mphClear
9:56 AM34.9 °F14.0 °F42 %30.06 in10.0 miSSE (150°)9.2 mphClear
10:56 AM39.9 °F17.1 °F40 %30.05 in10.0 miSW (220°)13.8 mphClear
11:56 AM41.0 °F18.1 °F40 %30.01 in10.0 miSW (220°)18.4 mph21.9 mphPartly Cloudy
12:56 PM45.0 °F21.0 °F39 %29.98 in10.0 miSW (230°)13.8 mph21.9 mphScattered Clouds
1:56 PM46.9 °F23.0 °F39 %29.96 in10.0 miSW (230°)17.3 mph21.9 mphScattered Clouds
2:56 PM47.8 °F22.1 °F36 %29.94 in10.0 miSW (220°)15.0 mph21.9 mphMostly Cloudy
3:56 PM46.9 °F23.0 °F39 %29.91 in10.0 miSW (230°)17.3 mph21.9 mphPartly Cloudy
4:56 PM45.9 °F24.1 °F42 %29.90 in10.0 miSSW (200°)5.8 mphPartly Cloudy
5:56 PM45.9 °F22.1 °F39 %29.88 in10.0 miSouth (180°)12.7 mphClear
6:56 PM43.0 °F21.0 °F42 %29.86 in10.0 miSouth (170°)11.5 mphClear
7:56 PM43.0 °F20.1 °F40 %29.83 in10.0 miSouth (190°)11.5 mph20.7 mphOvercast
8:56 PM43.9 °F21.0 °F40 %29.80 in10.0 miSouth (190°)11.5 mphOvercast
9:56 PM45.0 °F20.1 °F37 %29.79 in10.0 miSouth (190°)11.5 mphOvercast
10:56 PM45.0 °F21.0 °F39 %29.75 in10.0 miSouth (180°)12.7 mphScattered Clouds
11:56 PM41.9 °F21.0 °F43 %29.72 in10.0 miSSE (150°)9.2 mphClear
Hourly data recorded from KITH, located miles away from Aurora, New York







STORIES FROM OUR PARTNERS